sat.trackr.live / text

‹ back to catalog

STARLINK-33623

NORAD 63072 · 2025-035W

PAYLOAD ACTIVE UNKNOWN

§ Identity

Operator
Country
US
Launch date
2025-02-21
Launch site
AFETR
Launch vehicle
Mass (kg)
RCS (m²)

Purposes: comms

External: N2YO · Heavens-Above · Gunter

§ Orbital elements

Epoch: 2026-09-20T22:00:52.943616Z

Period
94.27 min
Inclination
43.0000°
Eccentricity
0.0001045
Mean motion
15.27583339 rev/d
Perigee alt
482.3 km
Apogee alt
483.8 km
Semi-major
6,861.2 km
B*
3.5383e-4
RAAN
124.8501°
Arg perigee
266.8120°
Mean anomaly
93.2612°
Rev number
8,958

§ Raw data

STARLINK-336231 63072U 25035W   26263.91727944  .00009488  00000+0  35383-3 0  99982 63072  43.0000 124.8501 0001045 266.8120  93.2612 15.27583339 89582

JSON: /api/v1/satellites/63072 · /tle

For live sub-satellite position, see the globe view (requires WebGL).

§ Visibility from observer

Set your observer location to see the next 7 days of passes ≥ 10°. The values pass through the URL so the page stays shareable.

No JS? Fill the form by hand. The geolocation button needs JavaScript.